When you browse on this site, cookies collect data to enhance your experience and personalize the content and advertising you see.
Visit our Privacy Policy to learn more. By continuing to use the site, you agree to this use of cookies and data.
  • Em Portugal
  • Lista de países
  • Para 7 dias
  • Temperatura da água
  • Mapas de satélite
  • Mapa do tempo
  • Widgets de tempo
  • user-avatar
    Iniciar Sessão

    Previsão horária em Asadabad

    Hoje, 21 Julho, Domingo

    Tempo Temperatura Precipitação Vento Pressão Humidade
    00:00 +28°C° 0.3 mm 1 m/s 656 mmHg 68%
    01:00 +28°C° 0.3 mm 1 m/s 656 mmHg 70%
    02:00 +28°C° 0.3 mm 1 m/s 656 mmHg 71%
    03:00 +27°C° 0.1 mm 1 m/s 656 mmHg 72%
    04:00 +27°C° 0.1 mm 1 m/s 655 mmHg 73%
    05:00 +26°C° 0 mm 1 m/s 655 mmHg 77%
    06:00 +25°C° 0.1 mm 0 m/s 656 mmHg 72%
    07:00 +26°C° 0.1 mm 0 m/s 656 mmHg 68%
    08:00 +27°C° 0.1 mm 0 m/s 657 mmHg 63%
    09:00 +30°C° 0.1 mm 1 m/s 656 mmHg 59%
    10:00 +31°C° 0.1 mm 2 m/s 656 mmHg 56%
    11:00 +33°C° 0 mm 3 m/s 657 mmHg 51%
    12:00 +34°C° 0.1 mm 3 m/s 657 mmHg 51%
    13:00 +34°C° 0.1 mm 3 m/s 656 mmHg 50%
    14:00 +34°C° 0.1 mm 3 m/s 656 mmHg 50%
    15:00 +34°C° 0.6 mm 3 m/s 656 mmHg 51%
    16:00 +34°C° 0.6 mm 2 m/s 655 mmHg 51%
    17:00 +34°C° 0.6 mm 2 m/s 655 mmHg 52%
    18:00 +32°C° 0.4 mm 2 m/s 655 mmHg 55%
    19:00 +31°C° 0.4 mm 2 m/s 655 mmHg 58%
    20:00 +31°C° 0.4 mm 1 m/s 656 mmHg 61%
    21:00 +30°C° 0.2 mm 1 m/s 656 mmHg 62%
    22:00 +30°C° 0.2 mm 1 m/s 656 mmHg 64%
    23:00 +30°C° 0.2 mm 1 m/s 656 mmHg 65%

    Amanhã, 22 Julho, Segunda-feira

    Tempo Temperatura Precipitação Vento Pressão Humidade
    00:00 +29°C° 0.4 mm 1 m/s 655 mmHg 67%
    01:00 +27°C° 0.4 mm 0 m/s 655 mmHg 69%
    02:00 +26°C° 0.4 mm 0 m/s 655 mmHg 70%
    03:00 +28°C° 0.1 mm 1 m/s 655 mmHg 71%
    04:00 +27°C° 0.1 mm 1 m/s 655 mmHg 71%
    05:00 +27°C° 0.1 mm 1 m/s 655 mmHg 72%
    06:00 +28°C° 0 mm 1 m/s 655 mmHg 67%
    07:00 +29°C° 0 mm 1 m/s 656 mmHg 63%
    08:00 +30°C° 0 mm 1 m/s 656 mmHg 58%
    09:00 +31°C° 0 mm 1 m/s 656 mmHg 55%
    10:00 +32°C° 0 mm 2 m/s 656 mmHg 53%
    11:00 +34°C° 0 mm 2 m/s 656 mmHg 50%
    12:00 +34°C° 0.1 mm 3 m/s 656 mmHg 49%
    13:00 +35°C° 0.1 mm 3 m/s 656 mmHg 48%
    14:00 +35°C° 0.1 mm 3 m/s 655 mmHg 47%
    15:00 +35°C° 0.3 mm 3 m/s 655 mmHg 46%
    16:00 +35°C° 0.3 mm 3 m/s 655 mmHg 46%
    17:00 +35°C° 0.3 mm 3 m/s 654 mmHg 46%
    18:00 +34°C° 0.2 mm 2 m/s 655 mmHg 50%
    19:00 +32°C° 0.2 mm 2 m/s 655 mmHg 54%
    20:00 +31°C° 0.2 mm 1 m/s 655 mmHg 58%
    21:00 +31°C° 0.1 mm 1 m/s 655 mmHg 61%
    22:00 +30°C° 0.1 mm 1 m/s 655 mmHg 64%
    23:00 +28°C° 0.1 mm 0 m/s 655 mmHg 66%

    Depois de amanhã, 23 Julho, Terça-feira

    Tempo Temperatura Precipitação Vento Pressão Humidade
    00:00 +27°C° 0 mm 0 m/s 655 mmHg 67%
    01:00 +27°C° 0 mm 0 m/s 655 mmHg 68%
    02:00 +27°C° 0 mm 0 m/s 654 mmHg 69%
    03:00 +26°C° 0 mm 0 m/s 654 mmHg 68%
    04:00 +28°C° 0 mm 1 m/s 654 mmHg 68%
    05:00 +27°C° 0 mm 1 m/s 654 mmHg 68%
    06:00 +28°C° 0 mm 1 m/s 654 mmHg 64%
    07:00 +27°C° 0 mm 0 m/s 655 mmHg 60%
    08:00 +29°C° 0 mm 0 m/s 655 mmHg 56%
    09:00 +32°C° 0 mm 1 m/s 655 mmHg 53%
    10:00 +34°C° 0 mm 2 m/s 655 mmHg 49%
    11:00 +35°C° 0 mm 2 m/s 655 mmHg 46%
    12:00 +35°C° 0 mm 2 m/s 655 mmHg 43%
    13:00 +36°C° 0 mm 3 m/s 655 mmHg 41%
    14:00 +37°C° 0 mm 3 m/s 655 mmHg 39%
    15:00 +37°C° 0 mm 3 m/s 654 mmHg 39%
    16:00 +37°C° 0 mm 3 m/s 654 mmHg 39%
    17:00 +37°C° 0 mm 3 m/s 654 mmHg 39%
    18:00 +36°C° 0.2 mm 2 m/s 654 mmHg 43%
    19:00 +34°C° 0.2 mm 1 m/s 653 mmHg 47%
    20:00 +33°C° 0.2 mm 1 m/s 653 mmHg 52%
    21:00 +32°C° 0.3 mm 1 m/s 654 mmHg 55%
    22:00 +32°C° 0.3 mm 1 m/s 654 mmHg 57%
    23:00 +29°C° 0.3 mm 0 m/s 654 mmHg 60%

    24 Julho, Quarta-feira

    Tempo Temperatura Precipitação Vento Pressão Humidade
    00:00 +29°C° 0 mm 0 m/s 654 mmHg 61%
    01:00 +28°C° 0 mm 0 m/s 653 mmHg 62%
    02:00 +28°C° 0 mm 0 m/s 653 mmHg 63%
    03:00 +27°C° 0 mm 0 m/s 653 mmHg 64%
    04:00 +27°C° 0 mm 0 m/s 653 mmHg 65%
    05:00 +27°C° 0 mm 0 m/s 653 mmHg 66%
    06:00 +30°C° 0 mm 1 m/s 653 mmHg 62%
    07:00 +31°C° 0 mm 1 m/s 654 mmHg 57%
    08:00 +32°C° 0 mm 1 m/s 654 mmHg 52%
    09:00 +33°C° 0 mm 1 m/s 654 mmHg 49%
    10:00 +35°C° 0 mm 2 m/s 654 mmHg 46%
    11:00 +36°C° 0 mm 2 m/s 654 mmHg 43%
    12:00 +37°C° 0 mm 2 m/s 654 mmHg 41%
    13:00 +37°C° 0 mm 2 m/s 654 mmHg 38%
    14:00 +38°C° 0 mm 3 m/s 653 mmHg 36%
    15:00 +38°C° 0.1 mm 3 m/s 653 mmHg 36%
    16:00 +38°C° 0.1 mm 2 m/s 653 mmHg 35%
    17:00 +38°C° 0.1 mm 2 m/s 653 mmHg 34%
    18:00 +37°C° 0.3 mm 2 m/s 653 mmHg 38%
    19:00 +36°C° 0.3 mm 2 m/s 653 mmHg 42%
    20:00 +34°C° 0.3 mm 1 m/s 653 mmHg 45%
    21:00 +33°C° 0.3 mm 1 m/s 653 mmHg 49%
    22:00 +33°C° 0.3 mm 1 m/s 653 mmHg 52%
    23:00 +32°C° 0.3 mm 1 m/s 653 mmHg 55%

    25 Julho, Quinta-feira

    Tempo Temperatura Precipitação Vento Pressão Humidade
    00:00 +31°C° 0.4 mm 1 m/s 653 mmHg 56%
    01:00 +31°C° 0.4 mm 1 m/s 653 mmHg 57%
    02:00 +31°C° 0.4 mm 1 m/s 653 mmHg 57%
    03:00 +30°C° 1.9 mm 1 m/s 653 mmHg 61%
    04:00 +29°C° 1.9 mm 1 m/s 653 mmHg 64%
    05:00 +28°C° 1.9 mm 2 m/s 653 mmHg 68%
    06:00 +29°C° 0.9 mm 2 m/s 653 mmHg 65%
    07:00 +29°C° 0.9 mm 1 m/s 654 mmHg 63%
    08:00 +30°C° 0.9 mm 1 m/s 654 mmHg 61%
    09:00 +31°C° 0.5 mm 2 m/s 654 mmHg 59%
    10:00 +32°C° 0.5 mm 2 m/s 654 mmHg 58%
    11:00 +33°C° 0.5 mm 3 m/s 655 mmHg 56%
    12:00 +33°C° 0.4 mm 3 m/s 654 mmHg 58%
    13:00 +33°C° 0.4 mm 3 m/s 654 mmHg 60%
    14:00 +33°C° 0.4 mm 3 m/s 653 mmHg 62%
    15:00 +31°C° 1.2 mm 3 m/s 653 mmHg 65%
    16:00 +31°C° 1.2 mm 3 m/s 653 mmHg 68%
    17:00 +30°C° 1.2 mm 2 m/s 652 mmHg 70%
    18:00 +29°C° 0.5 mm 2 m/s 652 mmHg 74%
    19:00 +29°C° 0.5 mm 2 m/s 653 mmHg 77%
    20:00 +28°C° 0.5 mm 1 m/s 653 mmHg 80%
    21:00 +28°C° 0.5 mm 1 m/s 653 mmHg 81%
    22:00 +27°C° 0.5 mm 1 m/s 654 mmHg 82%
    23:00 +27°C° 0.5 mm 1 m/s 654 mmHg 83%

    26 Julho, Sexta-feira

    Tempo Temperatura Precipitação Vento Pressão Humidade
    00:00 +27°C° 0.9 mm 1 m/s 653 mmHg 84%
    01:00 +26°C° 0.9 mm 1 m/s 653 mmHg 86%
    02:00 +26°C° 0.9 mm 1 m/s 653 mmHg 87%
    03:00 +26°C° 0.8 mm 1 m/s 653 mmHg 88%
    04:00 +25°C° 0.8 mm 1 m/s 653 mmHg 89%
    05:00 +25°C° 0.8 mm 1 m/s 653 mmHg 89%
    06:00 +26°C° 0.4 mm 1 m/s 653 mmHg 86%
    07:00 +26°C° 0.4 mm 1 m/s 653 mmHg 83%
    08:00 +27°C° 0.4 mm 1 m/s 653 mmHg 81%
    09:00 +27°C° 0.3 mm 2 m/s 653 mmHg 78%
    10:00 +28°C° 0.3 mm 2 m/s 653 mmHg 76%
    11:00 +28°C° 0.3 mm 3 m/s 653 mmHg 74%
    12:00 +29°C° 0.5 mm 3 m/s 653 mmHg 73%
    13:00 +29°C° 0.5 mm 3 m/s 653 mmHg 72%
    14:00 +29°C° 0.5 mm 3 m/s 653 mmHg 72%
    15:00 +29°C° 0.7 mm 3 m/s 653 mmHg 74%
    16:00 +28°C° 0.7 mm 3 m/s 653 mmHg 77%
    17:00 +28°C° 0.7 mm 2 m/s 652 mmHg 79%
    18:00 +27°C° 0.3 mm 2 m/s 653 mmHg 82%
    19:00 +26°C° 0.3 mm 2 m/s 653 mmHg 86%
    20:00 +25°C° 0.3 mm 2 m/s 653 mmHg 89%
    21:00 +25°C° 0.2 mm 2 m/s 653 mmHg 89%
    22:00 +25°C° 0.2 mm 1 m/s 653 mmHg 89%
    23:00 +25°C° 0.2 mm 1 m/s 653 mmHg 89%
    Mostrar mais